EHI
3 3 3 3 3 4 5 6 6 5 3 2 1 2 2 2 1 1 2 1 1 0 0 0 0 0 0 0 0 0 0 0 0 0 0 0 0 0 0 0 0 0 0
4 3 3 3 3 3 4 5 5 4 3 1 0 1 1 1 1 1 2 1 0 0 0 0 0 0 0 0 0 0 0 0 0 0 0 0 0 0 0 0 0 0 0
3 3 3 3 3 2 3 4 4 4 3 1 0 0 0 0 1 2 2 1 0 0 0 0 0 0 0 0 0 0 0 0 0 0 0 0 0 0 0 0 0 0 0
1 1 1 2 2 2 3 4 4 4 3 2 1 0 0 0 1 1 1 0 0 0 0 0 0 0 0 0 0 0 0 0 0 0 0 0 0 0 0 0 0 1 1
0 1 1 2 1 1 2 3 3 3 3 3 2 0 0 0 0 0 0 0 0 0 0 0 0 0 0 0 0 0 0 0 0 0 0 0 0 0 0 0 1 2 1
1 2 3 2 1 0 1 1 1 1 1 2 2 0 0 0 0 0 0 0 0 0 0 0 0 0 0 0 0 0 0 0 0 0 0 0 0 0 0 0 0 1 1
3 3 3 2 1 0 0 0 0 0 1 2 1 0 0 0 0 0 0 0 0 0 0 0 0 0 0 0 0 0 0 0 0 0 0 0 0 0 0 0 0 0 1
3 3 3 2 1 0 0 0 0 0 0 1 1 0 0 0 0 0 0 0 0 0 0 0 0 0 0 0 0 0 0 0 0 0 0 0 0 0 0 0 0 0 1
3 3 3 1 0 0 0 0 0 0 0 0 0 0 0 0 0 0 0 0 0 0 0 0 0 0 0 0 0 0 0 0 0 0 0 0 0 0 0 0 0 0 0
2 2 2 1 0 0 0 0 0 0 0 0 0 0 0 0 0 0 0 0 0 0 0 0 0 0 0 0 0 0 0 0 0 0 0 0 0 0 0 0 0 0 0
1 1 1 0 0 0 0 0 0 0 0 0 0 0 0 0 0 0 0 0 0 0 0 0 0 0 0 0 0 0 0 0 0 0 0 0 0 0 0 0 0 0 0
0 0 0 0 0 0 0 0 0 0 0 0 0 0 0 0 0 0 0 0 0 0 0 0 0 0 0 0 0 0 0 0 0 0 0 0 0 0 0 0 0 0 0
0 0 0 0 0 0 0 0 0 0 0 0 0 0 0 0 0 0 0 0 0 0 0 0 0 0 0 0 0 0 0 0 0 0 0 0 0 0 0 0 0 0 0
0 0 0 0 0 0 0 0 0 0 0 0 0 0 0 0 0 0 0 0 0 0 0 0 0 0 0 0 0 0 0 0 0 0 0 0 0 0 0 0 0 0 0
0 0 0 0 0 0 0 0 0 0 1 0 0 0 0 0 0 0 0 0 0 0 0 0 0 0 0 0 0 0 0 0 0 0 0 0 0 0 0 0 0 0 0
0 0 0 0 0 0 0 0 0 0 0 0 0 0 0 0 0 0 0 0 0 0 0 0 0 0 0 0 0 0 0 0 0 0 0 0 0 0 0 0 0 0 0
0 0 0 0 0 0 0 0 0 0 0 0 0 0 0 0 0 0 0 0 0 0 0 0 0 0 0 0 0 0 0 0 0 0 0 0 0 0 0 0 0 0 0
0 0 0 0 0 0 0 0 0 0 0 0 0 0 0 0 0 0 0 0 0 0 0 0 0 0 0 0 0 0 0 0 0 0 0 0 0 0 0 0 0 0 0
0 0 0 0 0 0 0 0 0 0 0 0 0 0 0 0 0 0 0 0 0 0 0 0 0 0 0 0 0 0 0 0 0 0 0 0 0 0 0 0 0 0 0
0 0 0 0 0 0 0 0 0 0 0 0 0 0 0 0 0 0 0 0 0 0 0 0 0 0 0 0 0 0 0 0 0 0 0 0 0 0 0 0 0 0 0
0 0 0 0 0 0 0 0 0 0 0 0 0 0 0 0 0 0 0 0 0 0 0 0 0 0 0 0 0 0 0 0 0 0 0 0 0 0 0 0 0 0 0
0 0 0 0 0 0 0 0 0 0 0 0 0 0 0 0 0 0 0 0 0 0 0 0 0 0 0 0 0 0 0 0 0 0 0 0 0 0 0 0 0 0 0
0 0 0 0 0 0 0 0 0 0 0 0 0 0 0 0 0 0 0 0 0 0 0 0 0 0 0 0 0 0 0 0 0 0 0 0 0 0 0 0 0 0 0
0 0 0 0 0 0 0 0 0 0 0 0 0 0 0 0 0 0 0 0 0 0 0 0 0 0 0 0 0 0 0 0 0 0 0 0 0 0 0 0 0 0 0
0 0 0 0 0 0 0 0 0 0 0 0 0 0 0 0 0 0 0 0 0 0 0 0 0 0 0 0 0 0 0 0 0 0 0 0 0 0 0 0 0 0 0
0 0 0 0 0 0 0 0 0 0 0 0 0 0 0 0 0 0 0 0 0 0 0 0 0 0 0 0 0 0 0 0 0 0 0 0 0 0 0 0 0 0 0
Wind_Speed
4 3 4 4 3 3 2 2 3 3 4 4 4 4 4 4 4 4 4 4 5 5 5 5 5 5 4 4 4 4 5 5 6 6 5 4 5 6 5 6 6 7 6
4 3 3 4 3 3 2 3 3 4 4 4 4 4 4 4 4 4 5 5 5 6 6 5 5 4 4 5 4 5 4 5 6 7 5 5 5 6 6 6 6 6 6
4 3 3 3 2 3 3 3 4 4 4 4 4 5 4 4 4 4 4 5 5 5 5 5 5 5 5 4 5 5 4 4 5 6 6 5 5 5 6 6 7 5 7
4 4 3 3 3 3 3 3 4 4 3 4 4 4 4 4 4 4 4 4 5 5 5 4 4 4 4 4 4 5 5 6 5 5 6 5 4 5 5 5 5 4 5
4 4 3 3 3 3 4 4 4 3 3 3 4 4 4 3 3 4 4 5 4 4 4 4 3 3 3 4 5 5 5 5 5 5 5 5 5 4 5 5 6 5 5
4 4 3 3 3 3 4 4 4 3 4 4 4 4 4 4 4 4 5 5 4 4 4 4 3 2 2 4 4 6 6 6 7 6 6 6 7 6 6 6 6 5 5
4 3 4 3 3 3 4 4 4 4 4 4 4 4 4 4 4 4 5 5 4 4 4 3 3 2 3 4 4 6 6 7 8 8 8 8 8 7 7 8 6 6 6
4 4 4 4 3 3 4 4 4 3 3 4 4 4 4 4 4 5 6 5 4 3 3 3 4 4 4 5 6 5 5 4 5 6 6 7 7 7 7 7 7 7 7
4 4 4 4 4 4 4 4 4 3 3 4 4 4 4 4 4 5 6 4 2 3 3 3 3 4 4 5 6 6 6 6 4 5 6 7 8 8 7 6 6 5 5
4 4 4 4 3 3 4 4 3 3 3 3 4 3 4 4 4 4 6 4 3 3 2 1 2 4 4 4 5 6 7 7 7 5 5 6 7 7 8 7 6 5 5
4 4 4 3 3 3 3 3 3 2 3 3 3 3 3 3 3 4 5 5 5 4 4 3 3 3 4 5 6 5 6 8 7 6 5 5 5 4 4 4 5 5 5
4 4 3 3 3 2 2 2 2 3 2 2 2 3 2 2 4 3 3 4 6 5 5 5 4 5 6 6 4 4 7 7 5 5 5 4 5 5 5 5 5 5 6
3 3 3 2 2 2 2 2 2 2 3 3 3 4 3 3 3 2 2 3 4 4 4 4 5 7 7 4 3 5 6 4 5 5 5 5 5 5 5 5 5 5 6
3 3 2 2 1 2 2 2 3 3 3 4 4 4 4 4 5 5 4 3 3 4 4 3 5 7 5 4 3 3 3 4 5 5 5 5 5 5 5 5 5 4 5
3 3 2 2 1 1 2 3 3 4 4 5 5 5 5 5 6 8 7 6 6 7 7 5 4 4 4 4 4 4 4 4 4 4 5 5 5 6 5 5 5 5 5
3 3 2 2 1 1 1 1 3 1 1 1 3 5 3 4 4 5 5 5 6 8 6 4 5 5 5 5 5 5 4 5 5 5 4 5 5 6 6 6 5 5 5
3 3 3 2 2 2 2 2 1 1 2 2 1 0 1 3 3 4 6 7 6 6 4 4 5 5 6 6 6 6 6 5 5 5 5 5 5 5 5 6 6 6 6
3 2 3 2 2 2 2 3 3 3 2 0 2 3 2 3 3 4 6 6 3 2 4 5 5 5 6 6 6 6 6 5 5 5 5 5 5 5 6 6 6 7 7
3 2 2 2 2 2 2 3 3 3 3 3 2 1 2 3 5 4 5 4 4 4 4 4 5 5 6 6 6 6 6 5 5 5 5 5 5 6 6 6 6 6 7
2 1 3 3 2 2 2 3 3 3 3 3 3 3 2 3 2 2 2 3 4 4 5 5 5 5 5 5 6 6 5 5 5 5 5 5 6 6 6 7 7 6 6
2 2 4 4 3 2 3 3 3 3 3 3 3 3 5 5 4 4 4 4 4 5 5 5 5 5 5 5 6 7 7 5 5 5 6 6 6 6 6 6 7 7 6
3 3 2 2 2 2 3 3 3 3 3 3 2 1 2 4 3 3 4 4 4 4 4 5 5 5 5 6 6 6 6 6 6 6 7 7 6 6 6 6 6 6 6
4 3 2 2 2 2 3 3 3 3 3 3 3 3 2 3 3 3 4 4 4 4 4 4 5 5 5 5 5 5 6 6 7 7 8 7 7 7 6 6 7 7 7
4 4 3 2 3 3 3 2 3 3 2 3 3 3 3 3 3 4 4 3 4 4 4 4 4 6 7 6 5 5 6 7 8 7 9 8 8 7 7 7 7 8 7
4 3 3 3 3 3 3 3 3 3 2 2 2 3 3 3 3 3 3 3 4 4 5 5 4 5 7 7 7 7 7 7 7 9 9 7 7 7 8 8 6 6 6
4 3 3 3 3 3 3 3 3 3 2 2 3 3 3 3 3 3 3 3 4 3 4 3 5 6 6 5 6 6 5 6 7 9 9 7 6 6 8 6 7 6 6
Wind_Direction
325 326 320 308 297 289 295 309 308 303 299 298 301 299 298 296 294 285 285 289 286 288 285 282 278 282 285 283 278 274 270 271 278 289 294 295 286 284 282 270 260 252 235
321 320 314 307 302 297 304 309 310 309 306 311 306 300 299 300 295 285 285 287 289 289 288 285 285 283 281 282 281 280 281 279 277 285 292 293 289 286 287 278 269 260 264
319 313 311 305 301 303 307 308 307 307 309 314 312 301 302 299 293 287 287 290 290 285 283 281 282 285 285 289 284 285 286 284 284 281 284 290 288 290 287 274 270 270 271
316 310 312 305 299 303 307 306 305 309 310 312 308 303 303 305 305 302 297 289 287 284 282 281 282 283 287 291 284 289 293 291 287 282 287 291 287 288 284 282 279 265 270
317 318 325 318 313 312 314 311 312 313 310 312 308 310 318 317 337 329 307 298 297 300 303 299 298 304 313 297 303 306 301 297 297 294 291 294 296 297 293 287 282 279 270
324 333 339 329 321 314 310 307 311 323 328 320 322 334 344 355 22 346 313 306 306 303 303 305 303 280 263 248 270 284 292 295 304 301 296 296 296 296 295 289 289 285 281
327 336 341 337 334 332 328 329 336 340 338 330 332 345 352 13 14 336 316 299 299 302 303 305 305 331 318 309 275 248 255 257 265 281 291 293 298 305 304 297 293 289 283
325 336 341 333 332 336 335 343 348 348 342 342 344 350 346 17 26 345 321 293 301 303 306 311 316 322 336 321 302 298 295 284 269 268 282 287 293 299 292 285 286 280 270
334 341 343 336 337 344 353 358 359 354 350 345 356 359 357 11 22 346 322 306 317 318 316 329 331 325 357 322 298 300 303 301 268 255 267 274 281 277 276 284 282 276 282
343 350 347 347 346 349 357 354 352 345 346 343 10 3 0 7 27 359 326 316 331 321 315 318 32 347 342 321 304 308 310 314 315 305 275 260 263 258 241 254 278 285 290
347 352 356 357 353 354 355 345 336 335 351 349 2 358 6 16 36 20 338 322 327 323 332 340 22 18 331 312 295 307 307 304 306 305 301 298 294 288 276 265 274 280 288
351 357 359 356 347 6 356 342 340 331 328 340 360 349 10 29 31 22 339 322 322 326 334 344 3 343 314 301 295 307 295 289 297 307 311 313 312 312 312 303 290 282 277
353 355 355 354 349 352 337 333 324 320 334 349 356 353 359 10 36 41 304 290 290 304 331 340 315 300 289 271 244 267 277 294 312 315 319 320 316 315 306 295 288 280 275
341 340 334 328 327 356 329 335 345 346 347 344 348 351 355 2 7 1 349 339 306 297 315 295 256 260 271 295 291 282 303 325 320 321 321 320 317 314 307 307 302 300 295
325 322 317 310 338 342 355 354 346 12 5 340 344 346 352 356 10 357 339 344 341 343 325 316 327 337 338 342 340 337 331 333 329 330 325 325 325 320 315 315 310 305 302
301 306 309 313 326 309 319 55 67 44 74 43 328 326 9 19 351 342 338 329 318 315 312 331 340 339 342 345 344 347 348 346 336 328 328 329 327 324 324 323 318 314 310
297 308 306 312 322 321 322 324 327 158 176 178 184 225 288 311 320 313 307 301 291 291 311 340 338 340 343 344 345 346 347 349 339 335 338 335 332 326 324 325 325 323 318
287 289 288 299 313 317 319 320 319 329 332 343 160 172 220 246 262 280 291 294 308 320 344 341 338 344 344 343 343 342 344 346 342 340 342 337 332 328 325 325 326 330 323
279 293 303 308 297 304 309 313 321 328 332 341 347 115 206 234 224 243 274 317 346 349 348 342 344 347 345 344 340 339 343 346 346 338 339 335 331 327 325 324 325 326 314
261 283 288 288 284 298 308 312 319 324 324 328 335 350 338 300 320 343 342 346 342 349 347 343 345 344 339 338 336 339 341 342 340 340 339 333 329 326 325 323 324 322 320
267 213 218 262 284 302 308 315 316 315 322 331 348 23 329 317 341 350 352 350 348 347 343 336 336 337 338 336 340 341 341 342 343 340 334 329 328 326 323 323 323 322 322
275 270 253 270 292 304 309 305 305 311 321 329 338 28 266 295 339 348 349 346 344 339 341 335 337 346 348 344 342 337 339 341 342 339 330 326 324 322 321 322 325 325 322
262 265 263 272 287 282 277 291 302 310 316 330 334 334 327 333 344 347 341 345 346 343 345 341 339 350 354 349 341 339 346 348 341 330 322 322 324 323 323 323 321 324 329
262 265 267 269 277 283 285 290 297 304 313 324 324 322 326 332 336 342 338 342 346 345 345 345 346 350 350 347 343 352 10 355 333 319 319 318 320 325 326 326 327 334 333
253 253 262 271 276 284 286 288 292 297 304 303 304 311 322 332 335 333 336 344 341 343 347 348 347 347 348 351 358 9 13 346 328 322 313 313 323 328 329 330 332 332 334
246 242 248 252 261 275 279 284 287 291 293 293 299 312 321 322 327 335 338 340 339 346 344 345 346 347 348 354 11 13 354 334 325 316 309 315 327 336 335 332 336 335 337